Location: *
(33.8649°S, 62.1526°E)
Time: 11:24:07
(UTC+00:00)

Cosmos 2297 - Pass Details

Date: 17 January 2021
Orbit: 834 x 860 km, 71.0° (Epoch: 02 March)

Event Time Altitude Azimuth Distance (km) Brightness Sun altitude
Rises 15:42:27 0° 202° (SSW) 3,414 7.8 -7.7°
Reaches altitude 10° 15:44:54 10° 202° (SSW) 2,472 7.0 -8.2°
Maximum altitude 15:50:35 85° 290° (WNW) 849 3.8 -9.2°
Drops below altitude 10° 15:56:12 10° 17° (NNE) 2,443 5.7 -10.2°
Enters shadow 15:57:18 - 17° (NNE) 2,862 6.0 -10.4°
